星链-31779 (STARLINK-31779 )

导读

STARLINK-31779是美国于2024年5月13日发射的SpaceX星链卫星,属于星链互联网卫星星座的扩容卫星。星链项目旨在构建全球卫星互联网覆盖网络,为偏远地区等提供高速网络服务,该卫星的发射延续了星链星座持续组网部署的节奏,推进星座全球覆盖能力的完善。

Basic Information
目录编号:
59744
目录名称:
STARLINK-31779
国际标识:
2024-090Q
轨道中心:
EARTH
卫星名称:
星链-31779
卫星全名:
星链-31779 (STARLINK-31779 )
卫星状态:
在轨 (已飞行844 天)
发射日期:
2024-05-13 UTC
国别 :
美国 (US)
星等 :
--
Orbit Information
数据来源 国际轨道数据 AOE轨道数据
星历时间 2026-09-03T08:35:59+0800
1天前
查看轨道信息
2026-09-01T02:00:00+0800
3天前
查看轨道信息
半长轴 6861.202km 6861.22km
偏心率 0.0001021 0.0000457
轨道倾角 43.002° 43.002°
近地点辐角 274.109° 267.583°
升交点赤经 261.793° 274.642°
平近点角 85.964° 166.991°
近地点 482.364km 482.769km
远地点 483.766km 483.397km
周期 94.267分钟 94.267分钟
每日圈数 15.275747 15.275687
Detailed Information
固有亮度:
5
最大亮度:
1.5
卫星平台:
Starlink v2.0 mini
覆盖范围:
全球
运营商:
太空探索技术公司
运营商所在国:
美国
制造商(研发单位):
太空探索技术公司
制造商所在国:
美国
使用方式:
暂无
Satellite Introduction
星链(Starlink)计划是由太空探索技术公司(SpaceX)提出的一个巨型低轨卫星互联网星座项目,计划在2019年至2024年间在太空搭建由约1.2万颗卫星组成的“星链”网络,其中1584颗将部署在地球上空550千米处的近地轨道,并从2020年开始工作。该卫星仍在工作。
2D Orbit Map
3D Orbit Map
Orbit Altitude Analysis Chart
Orbit Inclination Analysis Chart
Orbit Comprehensive Analysis Chart
View Comprehensive Chart
Conjunction Data List
Event ID Objects TCA Miss Dist (km) Collision Risk Probability Collision Risk Index (CRI) Action
CDM_260902-141405-305205-974422
2026-09-02T
14:14:55+0000
0.494 km
远距离
2.050703E-4 高风险 0.81